Simultaneous Nadir Overpasses (SNOs) Predictions

Prediction of SNOs between GOES-16 and NOAA-20 Satellite Orbit:

Table of predicted SNOs for the next 14.0 days since TLE Epoch: 10/26/2019
Index Date Time (GOES-16) GOES-16 Lat,Lon NOAA-20 Lat,Lon Distance(km) Time Diff (sec)
1 10/27/2019 18:26:13 -0.00, -75.21 -0.13, -75.72 58.55 80
2 10/28/2019 18:10:09 -0.00, -75.21 0.88, -71.18 458.41 80
3 10/30/2019 06:31:57 0.00, -75.22 0.28, -76.46 141.71 80
4 10/31/2019 06:10:33 0.00, -75.22 -0.73, -71.93 375.43 80
5 11/01/2019 18:32:29 -0.00, -75.24 -0.46, -77.23 227.12 80
6 11/02/2019 18:16:24 0.00, -75.25 0.55, -72.70 290.43 80
7 11/04/2019 06:38:13 -0.01, -75.27 0.62, -77.97 308.70 80
8 11/05/2019 06:16:48 -0.01, -75.28 -0.40, -73.44 209.17 80
9 11/06/2019 18:38:46 0.01, -75.31 -0.73, -78.76 392.26 80
10 11/07/2019 18:22:41 0.02, -75.33 0.29, -74.23 126.23 80




NCC Satellite Simultaneous Nadir Overpasses (SNOs) Prediction Service
